Location: *
(2.5500°S, 65.9667°W)
Time: 06:45:51
(UTC+00:00)

Explorer 7 - Pass Details

Date: 17 April 2024
Orbit: 467 x 625 km, 50.3° (Epoch: 26 May)

Event Time Altitude Azimuth Distance (km) Brightness Sun altitude
Rises 01:24:50 0° 332° (NNW) 2,634 - -45.0°
Reaches altitude 10° 01:27:08 10° 338° (NNW) 1,721 - -45.5°
Maximum altitude 01:30:54 48° 53° (NE) 650 - -46.4°
Drops below altitude 10° 01:34:31 10° 128° (SE) 1,655 - -47.3°
Sets 01:36:41 0° 134° (SE) 2,519 - -47.9°
